Find Raduga

NORAD ID: 17046 Int'l Des: 1986-082 Owner: UNKS Country: SU operational
HEOCIRCULAR

当前视图

正在加载3D地球...

关于 Raduga

正在加载描述...

即将过境

Passes for default location (London). Set your location on the main map for personalized predictions.

高度历史

Loading altitude history...

两行轨道根数

1 17046U 86082A 26146.55797147 -.00000011 00000-0 00000-0 0 9999
2 17046 11.1904 325.5356 0009856 191.3281 167.2647 0.98459388142697
Epoch: May 26, 2026 • Age: 9 hours

当前状态

高度 36281.5 km
速度 3.06 km/s
星下点 8.60°N, 122.84°W
发射日期 Oct 25, 1986
运行时间 39.5 years
类型 other

技术详情

分类 Payload
质量 1965.00 kg
干质量 1800.00 kg
总质量 1965.00 kg
长度 5.50 m
直径 2.50 m
跨度 9.50 m
形状 Step Cyl + 2 Pan
制造商 NPOPM
平台类型 Raduga
阶段状态 In Orbit
所有者/国家 UNKS/SU

Most Searched